Location: Orange Harbor Mobile Home Park
(26.6923°N, 81.7937°W)
Time: 08:13:56
(UTC+00:00)

Cosmos 1125 Rocket - Pass Details

Date: 19 September 2020
Orbit: 758 x 779 km, 74.0° (Epoch: 29 October)

Event Time Altitude Azimuth Distance (km) Brightness Sun altitude
Rises 01:32:38 0° 205° (SSW) 3,233 6.8 -28.3°
Reaches altitude 10° 01:35:04 10° 210° (SSW) 2,312 6.1 -28.9°
Maximum altitude 01:40:11 53° 287° (WNW) 950 4.2 -29.9°
Drops below altitude 10° 01:45:21 10° 4° (N) 2,331 6.1 -31.0°
Sets 01:47:48 0° 9° (N) 3,262 6.9 -31.6°
